Buffalo, NY

5:25 PM EST on December 12, 2019 (GMT -0500)
Buffalo Niagara International

Weather History for KBUF - November, 2019

Change the Weather History Date:

Friday, November 15, 2019

  Actual Average Record
Temperature  
Mean Temperature 33 °F 41 °F  
Max Temperature 36 °F 48 °F 70 °F (1927)
Min Temperature 30 °F 34 °F 8 °F (1933)
Degree Days  
Heating Degree Days 32 24  
Month to date heating degree days 458 325  
Since 1 July heating degree days 892 930  
Cooling Degree Days 0 0  
Month to date cooling degree days 0 0  
Year to date cooling degree days 604 544  
Moisture  
Dew Point 25 °F    
Average Humidity 67    
Maximum Humidity 75    
Minimum Humidity 59    
Precipitation  
Precipitation 0.00 in 0.14 in 1.64 in (1973)
Month to date precipitation 1.67 1.98  
Year to date precipitation 42.15 34.56  
Snow  
Snow 0.00 in 0.20 in 9.00 in (1974)
Month to date snowfall 12.6 2.6  
Since 1 July snowfall 12.6 3.5  
Since 1 September snowfall 12.6 3.5  
Snow Depth 6.00 in    
Sea Level Pressure  
Sea Level Pressure 30.25 in    
Wind  
Wind Speed 12 mph (West)    
Max Wind Speed 21 mph    
Max Gust Speed 26 mph    
Visibility 10 miles    
Events      
T = Trace of Precipitation, MM = Missing Value Source: NWS Daily Summary

Daily Weather History Graph

Daily Weather History Graph

Search for Another Location

Airport or City:

Astronomy

Nov. 15, 2019 Rise Set
Actual Time 7:06 AM EST 4:51 PM EST
Civil Twilight 6:36 AM EST 5:22 PM EST
Nautical Twilight 6:02 AM EST 5:56 PM EST
Astronomical Twilight 5:28 AM EST 6:29 PM EST
Moon 7:22 PM EST (11/15) 10:04 AM EST (11/15)
Length of Visible Light 10h 45m
Length of Day
9h 44m
Waning Gibbous, 90% of the Moon is Illuminated
Nov 15
Waning Gibbous
Nov 19
Last Quarter
Nov 26
New
Dec 4
First Quarter
Dec 12
Full

Hourly Weather History & Observations

Time (EST) Temp. Windchill Dew Point Humidity Pressure Visibility Wind Dir Wind Speed Gust Speed Precip Events Conditions
12:54 AM 33.1 °F 26.1 °F 26.1 °F 75% 30.16 in 10.0 mi WSW 8.1 mph - N/A   Overcast
1:54 AM 34.0 °F 26.6 °F 26.1 °F 73% 30.16 in 10.0 mi WSW 9.2 mph - N/A   Overcast
3:54 AM 33.1 °F 24.9 °F 26.1 °F 75% 30.16 in 10.0 mi West 10.4 mph - N/A   Overcast
4:54 AM 33.1 °F 24.9 °F 26.1 °F 75% 30.16 in 10.0 mi West 10.4 mph - N/A   Overcast
5:02 AM 33.1 °F 23.9 °F 25.0 °F 72% 30.13 in 10.0 mi West 12.7 mph - N/A   Mostly Cloudy
5:54 AM 32.0 °F 24.2 °F 25.0 °F 75% 30.17 in 10.0 mi West 9.2 mph - N/A   Mostly Cloudy
6:45 AM 32.0 °F 22.5 °F 24.1 °F 73% 30.15 in 10.0 mi West 12.7 mph - N/A   Scattered Clouds
6:54 AM 32.0 °F 23.0 °F 24.1 °F 73% 30.18 in 10.0 mi West 11.5 mph - N/A   Scattered Clouds
7:02 AM 32.0 °F 23.0 °F 24.1 °F 73% 30.16 in 10.0 mi West 11.5 mph - N/A   Mostly Cloudy
7:54 AM 32.0 °F 21.6 °F 25.0 °F 75% 30.19 in 10.0 mi West 15.0 mph - N/A   Mostly Cloudy
8:01 AM 32.0 °F 22.1 °F 25.0 °F 75% 30.17 in 10.0 mi WSW 13.8 mph 23.0 mph N/A   Overcast
8:12 AM 33.1 °F 23.4 °F 26.1 °F 75% 30.16 in 10.0 mi West 13.8 mph - N/A   Overcast
8:54 AM 33.1 °F 21.9 °F 26.1 °F 75% 30.21 in 10.0 mi West 18.4 mph 25.3 mph N/A   Mostly Cloudy
8:59 AM 33.1 °F 23.4 °F 26.1 °F 75% 30.18 in 10.0 mi West 13.8 mph 25.3 mph N/A   Mostly Cloudy
9:54 AM 34.0 °F 23.4 °F 25.0 °F 70% 30.21 in 10.0 mi West 17.3 mph 25.3 mph N/A   Overcast
10:30 AM 35.1 °F 24.5 °F 26.1 °F 70% 30.19 in 10.0 mi West 18.4 mph - N/A   Overcast
10:51 AM 35.6 °F 25.5 °F 26.6 °F 70% 30.20 in 10.0 mi West 17.3 mph 24.2 mph N/A   Overcast
10:54 AM 35.1 °F 26.4 °F 26.1 °F 70% 30.23 in 10.0 mi West 12.7 mph 24.2 mph N/A   Overcast
11:54 AM 34.0 °F 23.4 °F 27.0 °F 75% 30.22 in 10.0 mi West 17.3 mph - N/A   Overcast
12:54 PM 34.0 °F 25.5 °F 26.1 °F 73% 30.22 in 10.0 mi West 11.5 mph - N/A   Overcast
1:54 PM 34.0 °F 23.4 °F 26.1 °F 73% 30.23 in 10.0 mi West 17.3 mph 21.9 mph N/A   Overcast
2:45 PM 35.1 °F 26.4 °F 26.1 °F 70% 30.20 in 10.0 mi WSW 12.7 mph - N/A   Scattered Clouds
2:54 PM 35.1 °F 25.9 °F 26.1 °F 70% 30.24 in 10.0 mi West 13.8 mph - N/A   Scattered Clouds
3:54 PM 35.1 °F 26.9 °F 25.0 °F 67% 30.26 in 10.0 mi WSW 11.5 mph - N/A   Scattered Clouds
4:54 PM 35.1 °F 27.9 °F 26.1 °F 70% 30.29 in 10.0 mi WSW 9.2 mph - N/A   Partly Cloudy
5:54 PM 36.0 °F 27.1 °F 26.1 °F 67% 30.32 in 10.0 mi WSW 13.8 mph - N/A   Mostly Cloudy
6:54 PM 36.0 °F 29.0 °F 26.1 °F 67% 30.32 in 10.0 mi West 9.2 mph - N/A   Mostly Cloudy
7:54 PM 35.1 °F 26.9 °F 27.0 °F 72% 30.35 in 10.0 mi West 11.5 mph - N/A   Overcast
8:54 PM 34.0 °F 26.6 °F 26.1 °F 73% 30.37 in 10.0 mi WNW 9.2 mph - N/A   Overcast
9:32 PM 34.0 °F 22.7 °F 26.1 °F 73% 30.36 in 10.0 mi North 19.6 mph 25.3 mph N/A   Overcast
9:45 PM 34.0 °F 24.6 °F 25.0 °F 70% 30.36 in 10.0 mi North 13.8 mph 25.3 mph N/A   Overcast
9:54 PM 33.1 °F 24.9 °F 24.1 °F 70% 30.40 in 10.0 mi North 10.4 mph 21.9 mph N/A   Overcast
10:15 PM 33.1 °F 25.5 °F 23.0 °F 66% 30.38 in 10.0 mi North 9.2 mph - N/A   Overcast
10:54 PM 32.0 °F 23.0 °F 19.9 °F 61% 30.43 in 10.0 mi NNE 11.5 mph - N/A   Overcast
11:54 PM 30.0 °F 21.7 °F 17.1 °F 59% 30.44 in 10.0 mi North 9.2 mph - N/A   Mostly Cloudy